AXM390 WIMM-WMKK

Flight info

Callsign AXM390
Flight time 0h 42m
Altitude 25000
Route PUGER PUGER1H
Aircraft A343/H-SDE2E3FGHIJ4J5M1RWXY/LB1D1

Departure

Time 2026-04-22 09:18
Airport Kualanamu International Airport (WIMM)

Arrival

Time 2026-04-22 10:00
Airport Kuala Lumpur International Airport (WMKK)
Time Latitude Longitude Altitude Speed Heading
2026-04-22 08:50 3.63543 98.88203 44 ft 0 kts 224°
2026-04-22 09:04 3.63552 98.88212 42 ft 3 kts 224°
2026-04-22 09:04 3.63567 98.88226 42 ft 3 kts 223°
2026-04-22 09:04 3.63582 98.88239 41 ft 3 kts 207°
2026-04-22 09:04 3.63598 98.88244 40 ft 3 kts 158°
2026-04-22 09:05 3.63607 98.88239 40 ft 2 kts 135°
2026-04-22 09:05 3.63620 98.88226 41 ft 3 kts 135°
2026-04-22 09:05 3.63628 98.88218 43 ft 0 kts 135°
2026-04-22 09:09 3.63625 98.88223 44 ft 3 kts 124°
2026-04-22 09:09 3.63608 98.88262 44 ft 6 kts 97°
2026-04-22 09:09 3.63629 98.88296 44 ft 8 kts 48°
2026-04-22 09:09 3.63682 98.88353 44 ft 15 kts 47°
2026-04-22 09:10 3.63767 98.88439 44 ft 18 kts 42°
2026-04-22 09:10 3.63821 98.88448 44 ft 7 kts 344°
2026-04-22 09:10 3.63850 98.88425 44 ft 7 kts 320°
2026-04-22 09:10 3.63891 98.88388 44 ft 9 kts 316°
2026-04-22 09:11 3.63940 98.88337 44 ft 11 kts 314°
2026-04-22 09:11 3.64001 98.88274 44 ft 14 kts 314°
2026-04-22 09:11 3.64074 98.88198 44 ft 16 kts 314°
2026-04-22 09:11 3.64158 98.88115 44 ft 18 kts 316°
2026-04-22 09:12 3.64252 98.88026 44 ft 19 kts 317°
2026-04-22 09:12 3.64299 98.87971 44 ft 0 kts 285°
2026-04-22 09:12 3.64289 98.87946 44 ft 7 kts 236°
2026-04-22 09:12 3.64269 98.87899 44 ft 6 kts 277°
2026-04-22 09:13 3.64296 98.87854 43 ft 8 kts 300°
2026-04-22 09:13 3.64287 98.87817 43 ft 8 kts 235°
2026-04-22 09:13 3.64239 98.87768 43 ft 13 kts 224°
2026-04-22 09:13 3.64155 98.87684 43 ft 19 kts 225°
2026-04-22 09:14 3.64052 98.87577 43 ft 23 kts 226°
2026-04-22 09:14 3.63934 98.87449 43 ft 27 kts 228°
2026-04-22 09:14 3.63802 98.87306 43 ft 29 kts 222°
2026-04-22 09:14 3.63647 98.87165 43 ft 31 kts 223°
2026-04-22 09:15 3.63484 98.87009 43 ft 34 kts 224°
2026-04-22 09:15 3.63313 98.86837 43 ft 36 kts 225°
2026-04-22 09:15 3.63129 98.86656 43 ft 38 kts 224°
2026-04-22 09:15 3.62938 98.86468 43 ft 39 kts 225°
2026-04-22 09:16 3.62741 98.86274 44 ft 41 kts 225°
2026-04-22 09:16 3.62573 98.86105 44 ft 28 kts 225°
2026-04-22 09:16 3.62496 98.86023 43 ft 12 kts 238°
2026-04-22 09:16 3.62509 98.85958 42 ft 10 kts 310°
2026-04-22 09:17 3.62573 98.85898 40 ft 14 kts 324°
2026-04-22 09:17 3.62623 98.85901 41 ft 5 kts 37°
2026-04-22 09:17 3.62667 98.85942 42 ft 26 kts 43°
2026-04-22 09:17 3.62960 98.86235 42 ft 93 kts 45°
2026-04-22 09:18 3.63560 98.86825 40 ft 146 kts 45°
2026-04-22 09:18 3.64365 98.87614 376 ft 166 kts 43°
2026-04-22 09:18 3.65171 98.88398 1161 ft 158 kts 44°
2026-04-22 09:18 3.65888 98.89249 1768 ft 172 kts 65°
2026-04-22 09:19 3.65832 98.90503 2400 ft 197 kts 110°
2026-04-22 09:19 3.65298 98.91840 3128 ft 215 kts 109°
2026-04-22 09:19 3.64866 98.93369 3607 ft 244 kts 101°
2026-04-22 09:19 3.64593 98.95122 4260 ft 263 kts 96°
2026-04-22 09:20 3.64427 98.96980 5136 ft 272 kts 94°
2026-04-22 09:20 3.64309 98.98890 6064 ft 278 kts 93°
2026-04-22 09:20 3.64215 99.00848 6942 ft 285 kts 92°
2026-04-22 09:20 3.64133 99.02841 7892 ft 288 kts 91°
2026-04-22 09:21 3.64056 99.04855 8876 ft 291 kts 91°
2026-04-22 09:21 3.63982 99.06897 9793 ft 296 kts 90°
2026-04-22 09:21 3.63909 99.08987 10497 ft 308 kts 90°
2026-04-22 09:21 3.63833 99.11207 10900 ft 329 kts 91°
2026-04-22 09:22 3.63751 99.13568 11254 ft 350 kts 91°
2026-04-22 09:22 3.63664 99.16062 11647 ft 366 kts 91°
2026-04-22 09:22 3.63574 99.18641 12246 ft 375 kts 91°
2026-04-22 09:22 3.63482 99.21236 12916 ft 381 kts 91°
2026-04-22 09:23 3.63388 99.23910 13576 ft 387 kts 91°
2026-04-22 09:23 3.63292 99.26614 14192 ft 391 kts 91°
2026-04-22 09:23 3.63195 99.29382 14825 ft 395 kts 91°
2026-04-22 09:23 3.63099 99.32107 15437 ft 399 kts 91°
2026-04-22 09:24 3.62907 99.34888 16077 ft 403 kts 97°
2026-04-22 09:24 3.62370 99.37651 16735 ft 407 kts 102°
2026-04-22 09:24 3.61706 99.40423 17361 ft 411 kts 103°
2026-04-22 09:24 3.61021 99.43217 18051 ft 414 kts 103°
2026-04-22 09:25 3.60333 99.46034 18638 ft 418 kts 103°
2026-04-22 09:25 3.59642 99.48874 19227 ft 421 kts 103°
2026-04-22 09:25 3.58950 99.51727 19824 ft 423 kts 103°
2026-04-22 09:25 3.58255 99.54600 20443 ft 425 kts 103°
2026-04-22 09:26 3.57557 99.57483 21038 ft 428 kts 103°
2026-04-22 09:26 3.56855 99.60384 21622 ft 430 kts 103°
2026-04-22 09:26 3.56149 99.63302 22169 ft 433 kts 103°
2026-04-22 09:26 3.55438 99.66240 22733 ft 435 kts 103°
2026-04-22 09:27 3.54723 99.69194 23268 ft 439 kts 103°
2026-04-22 09:27 3.54001 99.72179 23634 ft 443 kts 103°
2026-04-22 09:27 3.53284 99.75144 23767 ft 445 kts 103°
2026-04-22 09:27 3.52557 99.78145 23787 ft 445 kts 103°
2026-04-22 09:28 3.51828 99.81159 23789 ft 445 kts 103°
2026-04-22 09:28 3.51099 99.84169 23786 ft 445 kts 103°
2026-04-22 09:28 3.50370 99.87182 23787 ft 446 kts 103°
2026-04-22 09:28 3.49640 99.90196 23789 ft 446 kts 103°
2026-04-22 09:29 3.48910 99.93211 23787 ft 446 kts 103°
2026-04-22 09:29 3.48179 99.96228 23787 ft 446 kts 103°
2026-04-22 09:29 3.47448 99.99244 23790 ft 446 kts 103°
2026-04-22 09:29 3.46716 100.02264 23790 ft 446 kts 103°
2026-04-22 09:30 3.45985 100.05282 23789 ft 446 kts 103°
2026-04-22 09:30 3.45255 100.08295 23790 ft 446 kts 103°
2026-04-22 09:30 3.44523 100.11312 23788 ft 446 kts 103°
2026-04-22 09:30 3.43790 100.14332 23990 ft 449 kts 103°
2026-04-22 09:31 3.43021 100.17366 24416 ft 451 kts 104°
2026-04-22 09:31 3.42235 100.20403 24705 ft 451 kts 104°
2026-04-22 09:31 3.41446 100.23461 24779 ft 459 kts 104°
2026-04-22 09:31 3.40623 100.26577 24783 ft 466 kts 106°
2026-04-22 09:32 3.39438 100.29596 24786 ft 468 kts 117°
2026-04-22 09:32 3.37695 100.32349 24793 ft 468 kts 124°
2026-04-22 09:32 3.35771 100.34986 24786 ft 469 kts 126°
2026-04-22 09:32 3.33827 100.37613 24786 ft 470 kts 126°
2026-04-22 09:33 3.31907 100.40214 24787 ft 471 kts 126°
2026-04-22 09:33 3.29964 100.42855 24788 ft 471 kts 126°
2026-04-22 09:33 3.28021 100.45498 24790 ft 471 kts 126°
2026-04-22 09:33 3.26082 100.48141 24787 ft 471 kts 126°
2026-04-22 09:34 3.24140 100.50788 24786 ft 471 kts 126°
2026-04-22 09:34 3.22199 100.53433 24789 ft 471 kts 126°
2026-04-22 09:34 3.20915 100.55184 24786 ft 471 kts 126°
2026-04-22 09:35 3.17040 100.60468 24788 ft 471 kts 126°
2026-04-22 09:35 3.15103 100.63109 24786 ft 471 kts 125°
2026-04-22 09:35 3.12511 100.66643 24786 ft 470 kts 126°
2026-04-22 09:35 3.11227 100.68394 24788 ft 470 kts 126°
2026-04-22 09:36 3.09290 100.71034 24785 ft 471 kts 126°
2026-04-22 09:36 3.07325 100.73680 24787 ft 476 kts 126°
2026-04-22 09:36 3.06160 100.75241 24787 ft 474 kts 126°
2026-04-22 09:37 3.05253 100.76458 24784 ft 472 kts 126°
2026-04-22 09:37 3.03308 100.79069 24605 ft 463 kts 126°
2026-04-22 09:38 3.01413 100.81615 24379 ft 451 kts 126°
2026-04-22 09:38 2.99543 100.84128 24159 ft 448 kts 126°
2026-04-22 09:38 2.97679 100.86636 23942 ft 450 kts 126°
2026-04-22 09:38 2.95854 100.89184 23717 ft 450 kts 122°
2026-04-22 09:39 2.94409 100.91953 23500 ft 448 kts 114°
2026-04-22 09:39 2.93164 100.94804 23259 ft 448 kts 113°
2026-04-22 09:39 2.91940 100.97664 22975 ft 446 kts 113°
2026-04-22 09:39 2.90728 101.00494 22435 ft 440 kts 113°
2026-04-22 09:40 2.89543 101.03249 22040 ft 431 kts 113°
2026-04-22 09:40 2.88375 101.05959 21908 ft 417 kts 113°
2026-04-22 09:40 2.87243 101.08583 21782 ft 403 kts 113°
2026-04-22 09:40 2.86149 101.11116 21641 ft 391 kts 113°
2026-04-22 09:41 2.85085 101.13580 21465 ft 380 kts 113°
2026-04-22 09:41 2.84048 101.15978 21307 ft 371 kts 113°
2026-04-22 09:41 2.83037 101.18317 21138 ft 362 kts 113°
2026-04-22 09:41 2.82054 101.20593 20989 ft 353 kts 113°
2026-04-22 09:42 2.81088 101.22822 20824 ft 340 kts 114°
2026-04-22 09:42 2.79957 101.24809 20545 ft 321 kts 129°
2026-04-22 09:42 2.78511 101.26470 20095 ft 323 kts 134°
2026-04-22 09:42 2.76957 101.28099 19747 ft 324 kts 134°
2026-04-22 09:43 2.75379 101.29709 19456 ft 323 kts 137°
2026-04-22 09:43 2.73527 101.30944 19152 ft 320 kts 159°
2026-04-22 09:43 2.71362 101.31342 18862 ft 317 kts 184°
2026-04-22 09:43 2.69212 101.30957 18608 ft 313 kts 196°
2026-04-22 09:44 2.67116 101.30358 18337 ft 312 kts 198°
2026-04-22 09:44 2.64991 101.29927 18064 ft 313 kts 184°
2026-04-22 09:44 2.62824 101.29957 17764 ft 312 kts 178°
2026-04-22 09:44 2.60659 101.30103 17460 ft 311 kts 176°
2026-04-22 09:45 2.58501 101.30268 17157 ft 311 kts 175°
2026-04-22 09:45 2.56400 101.30748 16849 ft 311 kts 160°
2026-04-22 09:45 2.54408 101.31574 16585 ft 309 kts 157°
2026-04-22 09:45 2.52448 101.32454 16319 ft 308 kts 156°
2026-04-22 09:46 2.50510 101.33360 16035 ft 308 kts 152°
2026-04-22 09:46 2.48784 101.34614 15764 ft 307 kts 138°
2026-04-22 09:46 2.47231 101.36076 15509 ft 306 kts 136°
2026-04-22 09:46 2.45708 101.37557 15260 ft 305 kts 136°
2026-04-22 09:47 2.44227 101.39075 14997 ft 304 kts 129°
2026-04-22 09:47 2.43126 101.40876 14751 ft 303 kts 117°
2026-04-22 09:47 2.42199 101.42767 14507 ft 302 kts 115°
2026-04-22 09:47 2.41290 101.44658 14277 ft 301 kts 115°
2026-04-22 09:48 2.40477 101.46584 14025 ft 300 kts 104°
2026-04-22 09:48 2.40126 101.48631 13795 ft 298 kts 96°
2026-04-22 09:48 2.39916 101.50691 13552 ft 297 kts 95°
2026-04-22 09:48 2.39715 101.52747 13294 ft 296 kts 95°
2026-04-22 09:49 2.39764 101.54792 12983 ft 295 kts 75°
2026-04-22 09:49 2.40511 101.56679 12748 ft 291 kts 63°
2026-04-22 09:49 2.41421 101.58480 12488 ft 290 kts 62°
2026-04-22 09:49 2.42326 101.60245 12238 ft 288 kts 62°
2026-04-22 09:50 2.43244 101.62054 11986 ft 287 kts 62°
2026-04-22 09:50 2.43862 101.63911 11761 ft 288 kts 83°
2026-04-22 09:50 2.43667 101.65880 11548 ft 287 kts 109°
2026-04-22 09:50 2.42642 101.67572 11335 ft 285 kts 133°
2026-04-22 09:51 2.41202 101.68948 10966 ft 289 kts 139°
2026-04-22 09:51 2.39669 101.70273 10547 ft 294 kts 140°
2026-04-22 09:51 2.38104 101.71608 10143 ft 298 kts 140°
2026-04-22 09:51 2.36517 101.72959 9731 ft 301 kts 140°
2026-04-22 09:52 2.34953 101.74361 9295 ft 303 kts 133°
2026-04-22 09:52 2.33734 101.76075 8831 ft 304 kts 115°
2026-04-22 09:52 2.33218 101.78090 8522 ft 298 kts 90°
2026-04-22 09:52 2.33593 101.80083 8271 ft 289 kts 64°
2026-04-22 09:53 2.34758 101.81658 8017 ft 282 kts 37°
2026-04-22 09:53 2.36530 101.82417 7779 ft 279 kts
2026-04-22 09:53 2.38457 101.82402 7539 ft 269 kts 355°
2026-04-22 09:53 2.40260 101.82259 7171 ft 251 kts 355°
2026-04-22 09:54 2.41957 101.82139 6821 ft 238 kts 356°
2026-04-22 09:54 2.43574 101.82046 6475 ft 227 kts 357°
2026-04-22 09:54 2.45125 101.81973 6111 ft 219 kts 358°
2026-04-22 09:54 2.46627 101.81912 5744 ft 212 kts 359°
2026-04-22 09:55 2.48079 101.81858 5375 ft 206 kts 359°
2026-04-22 09:55 2.49475 101.81809 5015 ft 201 kts 359°
2026-04-22 09:55 2.50863 101.81763 4656 ft 198 kts 359°
2026-04-22 09:55 2.52250 101.81707 4303 ft 201 kts 357°
2026-04-22 09:56 2.53621 101.81319 3951 ft 210 kts 336°
2026-04-22 09:56 2.54902 101.80561 3615 ft 216 kts 328°
2026-04-22 09:56 2.56109 101.79724 3368 ft 205 kts 327°
2026-04-22 09:56 2.57263 101.78944 3096 ft 197 kts 328°
2026-04-22 09:57 2.58404 101.78179 2837 ft 198 kts 328°
2026-04-22 09:57 2.59538 101.77411 2605 ft 196 kts 327°
2026-04-22 09:57 2.60665 101.76649 2347 ft 195 kts 328°
2026-04-22 09:57 2.61788 101.75890 2100 ft 196 kts 327°
2026-04-22 09:58 2.62914 101.75129 1841 ft 194 kts 325°
2026-04-22 09:58 2.64011 101.74386 1607 ft 185 kts 323°
2026-04-22 09:58 2.65051 101.73683 1358 ft 175 kts 324°
2026-04-22 09:58 2.66008 101.73037 1148 ft 158 kts 323°
2026-04-22 09:59 2.66879 101.72445 967 ft 146 kts 323°
2026-04-22 09:59 2.67687 101.71898 800 ft 136 kts 325°
2026-04-22 09:59 2.68465 101.71374 624 ft 134 kts 326°
2026-04-22 09:59 2.69222 101.70862 376 ft 130 kts 327°
2026-04-22 10:00 2.69968 101.70339 263 ft 129 kts 326°
2026-04-22 10:00 2.70707 101.69835 122 ft 129 kts 328°
2026-04-22 10:00 2.71442 101.69351 44 ft 117 kts 327°
2026-04-22 10:00 2.71889 101.69051 43 ft 34 kts 323°
2026-04-22 10:01 2.72049 101.68938 43 ft 29 kts 326°
2026-04-22 10:01 2.72218 101.68823 41 ft 30 kts 326°
2026-04-22 10:01 2.72392 101.68706 41 ft 30 kts 326°
2026-04-22 10:01 2.72576 101.68625 43 ft 28 kts 353°
2026-04-22 10:02 2.72769 101.68608 43 ft 28 kts 355°
2026-04-22 10:02 2.72940 101.68548 43 ft 17 kts 324°
2026-04-22 10:02 2.73024 101.68488 43 ft 16 kts 324°
2026-04-22 10:02 2.73118 101.68420 42 ft 18 kts 324°
2026-04-22 10:03 2.73224 101.68346 42 ft 15 kts 326°
2026-04-22 10:03 2.73312 101.68290 42 ft 13 kts 335°
2026-04-22 10:03 2.73380 101.68317 43 ft 11 kts 52°
2026-04-22 10:03 2.73426 101.68382 44 ft 13 kts 58°
2026-04-22 10:04 2.73475 101.68462 46 ft 15 kts 59°
2026-04-22 10:04 2.73537 101.68561 46 ft 19 kts 58°
2026-04-22 10:04 2.73617 101.68673 46 ft 21 kts 53°
2026-04-22 10:04 2.73670 101.68747 46 ft 0 kts 51°
2026-04-22 10:05 2.73687 101.68754 46 ft 3 kts 10°
2026-04-22 10:05 2.73708 101.68749 46 ft 3 kts 334°
2026-04-22 10:05 2.73742 101.68728 46 ft 8 kts 328°
2026-04-22 10:05 2.73767 101.68712 46 ft 2 kts 326°
2026-04-22 10:06 2.73768 101.68712 46 ft 0 kts 326°